Retour au catalogue

CZ-4C DEB

ActifSSO
NORAD 39212·DEBRIS·🇨🇳 China

Lancé Jul 19, 2013 depuis Taiyuan Satellite Launch Center

Loading…

Prochains Passages (prochaines 24 heures)

TLE

FraisSource: Space-Track

Époque: Sep 14, 2026, 21:01 UTC

1 39212U 13037E   26257.87636707  .00003468  00000-0  35308-3 0  9990
2 39212  97.9418 274.5972 0005151  62.7242 297.4501 14.91388163708207

Suivez CZ-4C DEB en temps réel avec AllMySat

Download on the App Store